Temp
-13 -13 -12 -13 -13 -12 -12 -12 -12 -12 -12 -12 -12 -11 -11 -11 -11 -10 -11 -11 -11 -11 -12 -12 -11 -11 -11 -11 -10 -11 -10 -10 -10 -11 -11 -11 -11 -11 -12 -12 -11 -12 -12 -12
-12 -12 -13 -13 -12 -13 -13 -13 -13 -12 -12 -12 -12 -11 -11 -11 -11 -11 -11 -11 -11 -11 -12 -12 -12 -12 -11 -11 -11 -10 -10 -10 -11 -11 -11 -11 -11 -11 -11 -12 -12 -12 -12 -12
-13 -12 -13 -13 -13 -13 -13 -13 -13 -13 -13 -13 -12 -11 -11 -11 -11 -11 -11 -11 -11 -11 -11 -12 -12 -12 -12 -11 -11 -11 -11 -11 -10 -11 -11 -11 -11 -11 -11 -12 -12 -12 -12 -12
-13 -13 -13 -14 -13 -13 -13 -14 -13 -13 -13 -13 -13 -11 -11 -11 -11 -11 -12 -12 -11 -11 -11 -11 -11 -12 -12 -12 -12 -11 -11 -10 -10 -10 -10 -10 -10 -10 -11 -12 -12 -12 -12 -12
-14 -14 -14 -14 -14 -14 -14 -13 -14 -14 -14 -13 -13 -13 -8 -11 -11 -12 -12 -12 -12 -12 -12 -12 -12 -11 -12 -12 -12 -12 -11 -11 -11 -10 -11 -10 -10 -10 -10 -11 -11 -11 -12 -12
-15 -14 -15 -15 -15 -15 -14 -14 -14 -14 -14 -13 -13 -13 -7 -12 -12 -11 -12 -12 -13 -12 -12 -12 -12 -12 -12 -12 -12 -12 -12 -11 -11 -10 -10 -11 -11 -11 -10 -11 -11 -11 -11 -11
-15 -15 -15 -15 -15 -15 -15 -15 -15 -15 -15 -14 -14 -13 -10 -11 -12 -12 -12 -12 -12 -12 -12 -13 -13 -12 -12 -12 -12 -12 -12 -12 -11 -11 -11 -10 -11 -11 -10 -10 -10 -11 -12 -12
-15 -15 -15 -15 -15 -15 -15 -15 -15 -15 -15 -14 -14 -13 -11 -12 -12 -13 -13 -13 -12 -12 -12 -13 -13 -13 -13 -13 -13 -12 -12 -12 -12 -11 -11 -11 -11 -11 -11 -10 -11 -11 -12 -12
-15 -15 -15 -15 -15 -15 -15 -15 -15 -15 -15 -15 -14 -13 -13 -13 -13 -13 -13 -13 -13 -13 -13 -13 -13 -14 -14 -14 -13 -13 -13 -12 -12 -12 -11 -11 -11 -11 -10 -11 -11 -11 -12 -13
-15 -15 -15 -15 -15 -15 -15 -15 -16 -16 -16 -15 -14 -14 -13 -14 -14 -14 -13 -14 -14 -13 -13 -13 -13 -12 -13 -13 -14 -14 -13 -13 -13 -12 -12 -11 -11 -11 -11 -11 -11 -11 -11 -12
-16 -16 -16 -16 -15 -15 -16 -16 -16 -16 -15 -15 -15 -14 -14 -14 -14 -14 -14 -14 -15 -15 -15 -15 -14 -14 -13 -13 -13 -13 -14 -14 -14 -13 -13 -12 -12 -11 -11 -11 -11 -11 -11 -12
-16 -16 -16 -16 -16 -16 -16 -16 -16 -16 -16 -16 -16 -14 -14 -15 -15 -15 -15 -16 -16 -15 -15 -15 -15 -14 -14 -14 -14 -14 -14 -14 -14 -14 -13 -13 -13 -12 -12 -12 -11 -11 -11 -12
-16 -16 -16 -16 -16 -16 -16 -16 -17 -17 -17 -17 -17 -15 -16 -16 -16 -16 -16 -16 -15 -15 -15 -15 -15 -15 -15 -15 -15 -14 -14 -14 -13 -13 -13 -13 -13 -13 -13 -12 -12 -12 -12 -12
-16 -16 -16 -16 -16 -16 -16 -17 -17 -17 -17 -17 -17 -16 -15 -17 -17 -16 -16 -16 -16 -16 -16 -15 -15 -15 -15 -15 -15 -15 -15 -15 -14 -14 -13 -13 -13 -13 -13 -13 -12 -12 -12 -13
-16 -16 -16 -16 -16 -17 -16 -17 -17 -17 -17 -18 -18 -17 -16 -17 -17 -17 -16 -16 -16 -16 -16 -16 -16 -16 -16 -16 -15 -15 -15 -15 -15 -14 -14 -14 -13 -13 -13 -13 -13 -12 -12 -13
-17 -16 -16 -16 -17 -17 -16 -17 -17 -18 -19 -19 -19 -17 -18 -16 -17 -17 -16 -17 -17 -17 -17 -17 -17 -17 -17 -17 -16 -16 -16 -16 -16 -15 -15 -15 -14 -14 -14 -13 -14 -13 -13 -13
-17 -17 -18 -17 -17 -17 -17 -18 -18 -19 -19 -19 -19 -19 -18 -17 -17 -17 -17 -18 -18 -18 -18 -18 -18 -18 -17 -17 -17 -17 -16 -16 -16 -16 -15 -16 -15 -15 -14 -14 -14 -14 -14 -14
-19 -19 -19 -18 -18 -17 -17 -18 -18 -18 -19 -20 -21 -20 -19 -19 -19 -18 -19 -20 -19 -19 -19 -19 -19 -19 -19 -19 -18 -18 -17 -17 -16 -16 -16 -16 -16 -16 -15 -14 -14 -14 -14 -14
-19 -20 -20 -19 -19 -18 -18 -18 -20 -21 -18 -22 -22 -21 -22 -22 -22 -18 -20 -22 -21 -21 -21 -20 -20 -20 -20 -20 -19 -19 -18 -18 -17 -17 -17 -16 -16 -17 -16 -15 -14 -15 -15 -14
-20 -20 -20 -20 -20 -19 -18 -19 -22 -22 -19 -23 -22 -23 -24 -24 -24 -20 -22 -23 -24 -24 -23 -23 -23 -22 -22 -22 -22 -21 -20 -19 -18 -17 -17 -17 -16 -16 -16 -15 -15 -15 -14 -14
-21 -21 -21 -21 -21 -19 -19 -21 -21 -22 -22 -22 -24 -24 -25 -25 -25 -24 -24 -24 -24 -24 -24 -23 -23 -23 -23 -23 -23 -23 -23 -22 -21 -19 -18 -17 -17 -16 -16 -16 -15 -14 -14 -14
-22 -22 -22 -22 -22 -21 -21 -21 -22 -24 -24 -23 -23 -24 -24 -24 -24 -24 -24 -24 -24 -24 -24 -24 -23 -23 -23 -24 -24 -23 -23 -23 -23 -22 -20 -18 -18 -17 -16 -16 -15 -16 -15 -15
-22 -23 -23 -24 -22 -22 -22 -23 -23 -24 -24 -24 -25 -24 -25 -25 -24 -24 -24 -24 -24 -24 -24 -24 -24 -24 -24 -24 -24 -24 -23 -23 -23 -23 -23 -20 -19 -18 -17 -17 -15 -15 -16 -16
-23 -24 -24 -22 -23 -23 -23 -24 -24 -25 -25 -25 -25 -25 -25 -25 -25 -25 -25 -24 -24 -24 -24 -24 -24 -24 -24 -24 -24 -24 -24 -23 -23 -23 -22 -22 -20 -19 -18 -18 -17 -17 -17 -16
-25 -25 -24 -22 -24 -24 -24 -25 -25 -25 -25 -25 -25 -25 -25 -25 -25 -25 -25 -25 -25 -25 -24 -24 -24 -24 -24 -24 -24 -24 -24 -23 -23 -23 -22 -22 -21 -20 -19 -18 -18 -18 -17 -17
-26 -25 -24 -24 -25 -24 -24 -25 -25 -25 -25 -25 -25 -25 -26 -26 -26 -26 -25 -25 -25 -25 -24 -24 -25 -25 -24 -24 -24 -24 -24 -24 -23 -23 -22 -22 -21 -20 -19 -18 -18 -17 -17 -17
Height
5784 5788 5793 5797 5797 5799 5801 5803 5805 5808 5812 5812 5815 5821 5822 5828 5830 5835 5837 5836 5834 5835 5837 5839 5841 5840 5839 5840 5842 5843 5842 5843 5841 5842 5842 5840 5841 5839 5839 5839 5839 5837 5836 5834
5772 5777 5783 5785 5787 5789 5789 5791 5795 5799 5801 5803 5805 5811 5816 5819 5824 5827 5829 5829 5828 5828 5828 5829 5827 5827 5829 5829 5832 5835 5836 5833 5832 5832 5832 5831 5832 5833 5832 5832 5832 5831 5829 5828
5760 5767 5768 5771 5774 5776 5778 5781 5784 5786 5788 5791 5790 5796 5807 5809 5813 5817 5817 5817 5818 5817 5816 5815 5816 5815 5817 5818 5820 5823 5825 5825 5823 5822 5821 5821 5822 5823 5825 5825 5824 5824 5822 5821
5749 5754 5757 5761 5763 5766 5769 5772 5771 5774 5775 5779 5779 5779 5793 5798 5802 5805 5807 5805 5801 5802 5803 5802 5803 5804 5806 5806 5809 5812 5814 5815 5815 5814 5813 5813 5813 5813 5816 5814 5814 5814 5814 5813
5739 5742 5745 5750 5753 5754 5758 5760 5761 5762 5764 5767 5770 5770 5780 5789 5793 5794 5792 5789 5789 5789 5791 5791 5789 5791 5793 5793 5795 5797 5802 5802 5803 5805 5804 5804 5804 5807 5807 5806 5805 5805 5805 5804
5728 5732 5737 5740 5742 5743 5745 5747 5749 5752 5754 5755 5759 5762 5768 5776 5776 5778 5776 5777 5777 5778 5778 5778 5778 5778 5779 5780 5781 5783 5785 5789 5789 5792 5795 5796 5796 5797 5798 5800 5800 5798 5796 5795
5720 5722 5725 5727 5731 5733 5736 5738 5739 5741 5742 5747 5746 5750 5760 5760 5759 5760 5766 5764 5761 5763 5763 5764 5764 5764 5765 5766 5768 5769 5770 5773 5774 5776 5779 5783 5785 5786 5787 5789 5791 5789 5788 5787
5711 5714 5717 5720 5722 5725 5726 5728 5730 5731 5732 5734 5734 5739 5746 5751 5748 5746 5745 5745 5746 5747 5748 5749 5749 5749 5751 5752 5754 5755 5756 5758 5760 5761 5763 5765 5770 5773 5775 5777 5778 5779 5778 5778
5703 5706 5709 5711 5713 5717 5716 5718 5720 5721 5722 5720 5722 5731 5736 5737 5736 5732 5728 5725 5725 5728 5730 5731 5734 5735 5735 5737 5738 5739 5741 5742 5744 5747 5748 5751 5752 5757 5761 5763 5765 5766 5767 5767
5696 5700 5702 5703 5704 5706 5707 5710 5711 5712 5711 5710 5714 5719 5725 5725 5723 5720 5716 5712 5709 5706 5709 5713 5716 5718 5719 5720 5722 5721 5722 5723 5726 5728 5731 5734 5737 5739 5743 5745 5751 5753 5754 5753
5690 5693 5695 5696 5698 5699 5700 5701 5702 5703 5703 5702 5703 5711 5713 5712 5711 5709 5705 5697 5690 5690 5693 5696 5698 5701 5702 5702 5703 5705 5705 5705 5707 5709 5713 5716 5718 5721 5727 5729 5732 5737 5738 5740
5685 5687 5689 5690 5690 5692 5692 5692 5692 5692 5694 5693 5691 5699 5699 5699 5698 5693 5688 5680 5676 5677 5678 5679 5682 5683 5686 5685 5685 5686 5688 5691 5692 5694 5695 5698 5700 5701 5709 5712 5715 5720 5722 5725
5677 5678 5681 5684 5686 5684 5684 5684 5684 5682 5681 5680 5679 5688 5684 5686 5682 5678 5673 5669 5664 5663 5664 5665 5666 5668 5669 5669 5669 5669 5669 5671 5674 5678 5678 5680 5682 5684 5691 5695 5697 5703 5707 5709
5669 5669 5672 5674 5675 5677 5676 5675 5672 5670 5668 5669 5669 5673 5683 5671 5664 5664 5664 5658 5652 5649 5649 5649 5651 5651 5650 5652 5653 5655 5654 5655 5656 5658 5660 5662 5664 5666 5675 5678 5680 5684 5689 5692
5660 5662 5663 5664 5664 5663 5663 5662 5660 5656 5656 5654 5656 5655 5664 5654 5649 5651 5650 5648 5643 5638 5634 5632 5631 5632 5632 5634 5635 5637 5638 5639 5640 5641 5642 5642 5645 5647 5656 5662 5665 5668 5671 5675
5650 5650 5651 5651 5652 5651 5651 5649 5649 5647 5645 5641 5638 5639 5636 5642 5633 5632 5634 5629 5626 5626 5620 5614 5613 5612 5614 5615 5616 5618 5621 5622 5623 5625 5625 5625 5628 5630 5635 5644 5648 5652 5655 5657
5640 5641 5640 5639 5640 5640 5638 5638 5635 5632 5629 5625 5620 5621 5623 5624 5622 5616 5621 5611 5605 5603 5601 5598 5595 5595 5595 5594 5595 5597 5601 5604 5606 5607 5608 5610 5612 5615 5619 5626 5630 5635 5638 5642
5632 5630 5628 5628 5628 5629 5629 5625 5621 5618 5618 5609 5604 5607 5605 5603 5601 5609 5605 5589 5589 5586 5584 5581 5577 5575 5575 5574 5576 5577 5580 5583 5586 5588 5590 5593 5597 5599 5604 5609 5614 5618 5623 5626
5621 5619 5618 5615 5616 5621 5625 5612 5608 5602 5607 5598 5592 5590 5587 5582 5577 5594 5584 5572 5571 5570 5568 5564 5561 5559 5557 5556 5556 5557 5559 5562 5565 5568 5572 5574 5579 5584 5588 5593 5597 5601 5605 5610
5610 5609 5608 5607 5605 5608 5610 5604 5591 5584 5591 5583 5580 5575 5571 5567 5560 5570 5566 5560 5557 5555 5553 5551 5549 5544 5542 5541 5539 5539 5539 5540 5542 5547 5552 5556 5560 5566 5571 5574 5579 5585 5589 5591
5600 5599 5597 5595 5589 5596 5601 5592 5576 5573 5573 5571 5566 5562 5556 5551 5549 5548 5549 5549 5544 5540 5540 5538 5534 5532 5532 5529 5525 5522 5522 5522 5521 5525 5531 5538 5541 5546 5552 5559 5564 5566 5567 5574
5590 5587 5585 5582 5578 5579 5582 5580 5569 5559 5555 5558 5554 5550 5542 5540 5538 5538 5535 5532 5531 5527 5526 5524 5519 5522 5521 5516 5511 5509 5510 5507 5507 5508 5512 5517 5523 5528 5534 5540 5546 5548 5547 5553
5581 5576 5575 5574 5567 5570 5570 5560 5556 5551 5543 5544 5536 5538 5531 5525 5524 5523 5520 5517 5515 5513 5511 5509 5505 5507 5508 5505 5500 5496 5497 5493 5494 5494 5496 5498 5504 5512 5517 5522 5528 5531 5536 5542
5568 5567 5565 5560 5562 5562 5557 5553 5546 5541 5534 5531 5525 5521 5518 5510 5511 5506 5503 5500 5497 5497 5495 5494 5491 5490 5492 5491 5488 5485 5483 5480 5479 5480 5482 5484 5488 5495 5502 5507 5512 5517 5520 5529
5562 5557 5552 5552 5553 5549 5548 5540 5535 5532 5524 5520 5516 5508 5505 5497 5496 5492 5489 5486 5483 5482 5480 5476 5476 5476 5478 5475 5474 5472 5470 5467 5465 5466 5469 5472 5475 5479 5486 5492 5498 5503 5508 5514
5551 5547 5545 5548 5543 5537 5539 5532 5526 5521 5517 5510 5503 5500 5495 5485 5481 5478 5474 5472 5468 5465 5464 5462 5461 5460 5463 5461 5460 5458 5457 5454 5453 5455 5456 5459 5462 5467 5473 5478 5483 5487 5494 5500
Wind_Speed
55 52 52 51 50 54 57 58 52 48 52 53 53 56 59 53 52 50 48 48 48 46 41 40 37 38 38 37 35 30 30 28 33 29 26 25 25 25 26 25 24 24 26 28
60 61 59 60 62 63 66 58 53 52 53 55 54 56 54 57 56 55 53 53 53 52 48 44 44 45 45 43 40 36 33 36 35 33 30 30 28 28 29 29 29 28 29 29
59 63 62 56 61 62 60 58 58 54 54 54 57 56 53 56 55 52 54 57 58 58 57 55 53 52 50 49 49 42 40 39 39 41 39 35 35 33 32 29 30 31 32 33
58 59 56 50 52 50 46 44 49 58 52 54 58 54 50 54 53 50 55 52 56 60 61 62 62 59 56 55 53 51 47 46 46 44 48 40 38 36 33 35 34 33 32 34
52 52 52 49 46 46 47 47 43 45 47 52 54 61 48 49 49 53 55 58 53 54 55 55 57 59 58 59 57 57 53 54 52 49 49 48 41 44 38 38 37 37 35 34
57 57 51 50 49 49 50 52 51 51 50 55 51 50 48 48 51 47 51 60 59 60 62 62 62 62 59 57 58 57 56 55 58 55 53 50 45 42 44 41 39 39 44 42
39 43 45 45 44 47 49 52 53 53 54 54 54 56 55 55 55 55 48 49 50 59 59 64 65 63 65 61 58 57 58 58 59 60 57 55 50 47 47 46 45 42 41 46
32 35 37 40 42 43 45 47 50 53 54 54 53 55 54 51 55 57 58 58 58 59 58 54 54 57 65 66 64 61 59 60 61 62 62 60 56 50 47 46 47 43 41 45
27 30 31 34 36 36 39 42 43 47 48 51 52 46 45 44 47 54 58 61 63 63 62 63 60 60 57 55 64 63 65 63 63 62 61 60 60 59 55 51 52 48 41 44
31 31 32 33 34 36 37 38 38 40 42 45 45 43 38 40 43 48 52 56 58 62 62 60 61 65 65 63 63 62 66 65 68 70 69 68 66 65 62 59 51 52 49 46
26 26 27 28 29 31 32 33 35 36 38 40 41 37 35 38 40 42 45 52 56 57 58 57 55 56 60 61 62 65 67 68 72 71 70 70 70 69 62 61 53 51 51 50
25 25 26 28 30 31 33 35 36 39 40 41 43 37 39 40 40 43 47 53 56 56 56 56 54 53 54 56 57 60 64 67 69 68 71 76 78 79 68 64 61 56 53 53
26 28 28 29 30 32 34 35 37 39 41 43 45 41 43 42 45 47 52 56 61 62 59 58 56 55 55 54 54 56 59 61 65 68 71 70 70 74 71 72 70 61 57 59
29 32 32 33 34 33 35 37 39 41 44 44 46 45 37 43 48 49 52 56 62 65 66 65 63 61 59 57 56 54 56 58 59 64 70 73 73 71 63 63 61 56 58 60
35 35 35 36 36 37 39 39 42 46 46 47 45 47 42 48 51 50 52 56 60 64 66 67 67 66 65 63 60 57 55 55 60 59 64 70 73 74 67 61 58 58 60 63
36 38 39 39 39 41 42 43 43 43 44 48 50 51 51 53 57 59 59 60 63 62 65 68 68 69 67 65 64 63 58 57 55 58 61 66 69 73 72 62 58 57 61 68
39 39 41 43 43 43 47 44 46 47 49 51 53 53 54 57 62 65 64 66 65 64 65 66 68 67 67 67 65 64 62 59 57 57 60 61 61 66 70 66 60 58 58 61
38 40 42 44 44 46 47 47 49 50 50 54 54 54 59 60 61 60 56 59 61 62 62 61 62 63 63 64 64 65 63 61 59 59 59 61 60 59 58 64 64 59 61 62
38 41 43 46 47 45 42 49 49 49 54 47 50 55 55 54 58 60 55 56 55 55 56 57 57 58 58 58 61 63 64 63 63 61 58 61 61 62 57 56 64 65 62 65
39 41 44 45 46 47 44 47 50 54 55 42 48 46 46 45 50 56 49 48 47 45 45 43 44 49 49 50 52 56 60 63 63 64 61 58 60 65 62 61 56 65 73 76
39 39 41 42 47 47 43 43 55 54 51 50 45 45 42 43 45 50 47 43 48 49 44 44 46 46 44 44 47 49 49 53 56 62 62 59 57 60 67 65 66 72 64 70
35 37 39 41 45 46 45 46 51 52 51 49 50 48 50 51 50 47 46 48 47 52 53 50 47 42 36 36 40 41 44 48 46 49 58 61 56 56 60 70 70 76 79 64
35 36 36 38 47 44 43 47 49 50 53 49 52 47 50 54 52 52 51 49 47 44 47 49 52 45 39 44 46 48 45 47 45 42 44 54 58 53 57 61 73 77 64 66
34 30 35 44 40 37 37 36 37 40 46 48 50 47 48 50 49 48 43 45 47 48 45 47 48 48 48 48 50 51 47 50 44 41 40 39 47 49 50 56 56 59 50 56
25 28 36 39 34 36 34 35 36 39 45 46 47 51 51 52 49 46 49 49 49 47 43 46 50 53 53 51 51 50 49 50 45 40 42 36 34 39 43 51 50 47 46 40
22 32 35 32 31 31 23 27 33 36 38 41 45 45 45 48 48 48 49 48 49 50 47 48 46 45 43 42 39 43 43 43 40 36 36 34 33 36 36 42 44 46 43 41
Wind_Direction
257 251 251 255 256 262 268 267 258 254 249 252 245 245 249 246 249 251 255 259 265 269 271 272 266 267 267 268 268 266 267 268 264 262 261 260 265 270 274 275 282 289 294 299
255 258 257 257 258 262 265 253 250 252 248 255 255 246 252 255 256 256 254 258 261 263 264 263 266 267 267 268 266 266 262 263 265 254 254 257 258 261 268 274 275 278 286 293
256 262 259 257 259 257 255 252 254 253 253 255 254 250 245 251 256 259 259 259 260 262 263 264 263 264 264 265 268 265 262 259 256 255 249 254 258 257 258 266 265 271 276 285
253 249 251 252 252 249 247 253 258 246 249 255 255 260 252 251 254 259 258 263 259 258 260 261 263 264 265 266 265 265 263 262 258 255 256 253 256 258 253 259 263 257 268 276
248 248 249 245 246 249 250 252 256 258 254 255 258 261 264 255 255 258 259 258 259 260 258 259 263 264 265 264 263 263 261 263 260 258 252 254 257 265 257 257 266 256 257 266
246 246 247 248 251 253 255 256 256 259 262 260 261 264 260 262 262 263 261 258 258 255 259 260 263 264 264 264 262 260 259 259 260 258 254 253 254 253 258 263 265 268 261 267
256 255 252 253 257 259 260 263 265 264 264 266 269 264 260 265 272 272 270 268 266 263 262 258 260 264 260 260 260 258 256 255 257 256 256 253 252 252 255 261 263 264 266 266
246 248 249 251 253 255 258 259 259 262 266 268 267 267 268 271 272 274 270 268 264 262 262 261 264 260 258 261 261 259 257 257 256 257 258 260 258 259 256 261 264 264 267 265
241 242 245 247 251 253 253 254 258 260 261 264 267 270 270 272 272 271 273 271 269 267 265 261 259 262 261 260 258 257 256 257 257 256 256 259 262 264 263 259 261 261 261 264
242 245 246 247 249 251 253 257 260 263 266 268 271 273 277 274 271 271 271 272 271 269 267 264 262 260 260 259 258 255 254 255 254 255 256 257 260 262 263 264 258 261 258 256
240 244 247 249 254 258 263 265 267 269 272 276 279 279 280 276 272 272 272 271 271 270 269 269 267 263 259 258 256 255 257 254 251 254 255 257 260 260 260 260 257 251 255 259
253 254 254 258 261 264 267 269 272 274 277 278 281 279 280 280 281 278 277 277 278 278 278 274 272 269 265 260 259 258 255 254 256 257 256 257 259 260 259 258 258 254 254 257
259 261 259 258 262 267 269 273 274 275 278 279 281 283 288 288 281 278 275 275 277 276 277 278 277 275 272 269 263 258 258 257 254 253 256 257 257 257 257 257 259 253 252 254
265 268 270 272 274 274 274 274 274 276 276 278 281 282 279 282 279 277 278 277 278 280 279 279 278 275 272 270 269 267 261 257 255 253 250 253 255 258 256 255 257 254 248 249
269 271 271 273 274 274 274 275 277 280 286 288 289 288 288 281 281 279 277 277 277 278 278 277 277 275 274 273 271 268 265 262 256 253 252 250 251 255 254 252 254 256 255 245
271 272 275 277 278 280 282 280 286 287 285 286 287 288 285 284 284 284 283 281 279 277 275 276 274 274 273 272 271 270 268 265 261 258 253 253 250 251 254 249 250 251 254 245
271 275 277 279 280 281 280 286 287 287 288 289 286 286 285 285 284 284 287 284 281 277 275 275 275 274 274 273 271 269 267 266 265 262 257 252 254 250 253 251 248 245 249 249
272 274 274 277 277 276 283 286 285 285 285 284 288 290 287 285 283 283 285 279 278 278 277 276 276 276 275 274 274 271 268 265 262 261 259 255 250 251 249 249 248 247 246 249
272 273 274 273 274 279 283 283 286 287 283 297 295 291 291 288 284 285 283 280 281 279 277 277 277 277 278 276 272 270 269 266 263 260 258 255 252 247 241 243 247 250 252 249
270 271 274 279 280 279 283 286 293 289 289 292 291 293 291 286 283 286 278 276 276 278 280 281 281 280 279 279 279 275 271 267 264 260 258 257 253 247 245 236 241 250 250 253
276 279 279 281 281 279 285 287 289 290 291 288 291 288 282 280 284 288 284 276 272 271 275 277 275 279 283 285 285 284 285 280 273 263 257 255 254 250 246 243 235 234 237 239
282 283 283 284 286 289 287 285 284 287 288 291 288 286 282 285 288 288 285 279 276 275 274 273 272 278 281 280 282 288 289 284 281 271 262 255 251 250 249 246 242 248 253 248
282 283 287 293 287 293 299 293 292 295 296 298 293 294 293 293 294 293 289 285 276 278 276 271 268 271 275 275 281 282 288 288 278 274 264 261 254 249 246 248 247 252 259 254
284 300 296 287 293 305 302 308 303 295 293 295 294 295 297 294 298 299 292 287 283 278 279 267 269 266 272 277 278 279 281 291 274 268 259 264 258 253 248 246 252 256 258 257
310 298 288 300 315 306 308 300 295 296 296 295 294 296 296 293 292 292 288 287 287 286 275 272 270 270 274 276 280 276 277 286 272 263 258 261 251 248 250 249 251 254 253 251
297 290 301 315 309 309 322 306 304 304 303 300 297 295 295 297 297 296 293 291 288 283 279 275 275 275 278 276 272 277 277 285 269 260 260 255 246 241 249 249 253 249 245 245